Helicity
-3 17 2 -22 -16 -3 22 73 65 88 75 44 89 90 89 96 67 25 13 33 -2 65 181 207 107 150 237 266 274 336 382 368 393 347 346 328 330 350 350 325 278 273 267 309
39 15 7 15 39 37 -1 30 50 9 56 60 93 71 113 81 70 62 70 60 34 5 55 127 182 184 200 257 297 327 387 454 425 417 366 359 434 440 427 396 410 390 363 330
42 1 20 31 -13 27 -11 35 21 40 75 66 35 -85 -54 41 91 122 129 164 108 48 19 39 90 70 175 226 261 338 376 476 450 441 567 550 546 487 479 484 494 481 445 402
24 65 47 14 33 78 21 51 32 31 60 60 88 -23 77 170 245 159 157 206 248 228 164 22 30 68 122 172 226 311 379 474 491 583 574 548 452 482 491 520 502 519 478 462
74 59 16 8 80 112 66 27 9 18 34 34 88 -12 144 80 81 132 117 168 171 218 192 204 36 38 111 208 238 234 317 405 487 545 513 514 444 472 541 533 563 483 528 486
57 49 23 87 84 71 34 28 4 26 0 50 13 -33 101 41 50 49 52 74 99 137 168 173 187 168 69 149 247 298 302 359 468 493 414 425 548 550 581 570 567 527 549 519
53 11 33 87 62 18 44 39 -18 47 62 45 13 11 101 66 35 -39 -26 57 55 -42 37 79 156 278 272 170 177 263 315 289 406 457 368 402 555 564 534 541 542 515 522 510
111 38 94 121 92 81 59 69 28 34 37 197 37 -13 -18 64 33 -58 -89 -70 -70 -47 -9 65 47 116 271 270 156 216 273 312 426 403 373 470 513 567 538 564 574 572 603 581
87 150 124 20 86 104 48 85 61 109 75 112 89 53 60 68 -17 -102 -98 -81 -63 -4 79 108 58 62 116 222 242 138 210 265 400 392 420 476 514 571 612 619 651 659 676 667
139 201 84 103 46 61 72 -7 -55 -42 17 109 143 118 60 15 -15 -91 -65 -34 5 33 55 107 129 61 75 122 148 204 185 261 379 427 502 548 570 594 655 673 648 710 643 628
140 217 139 85 59 6 -14 -47 12 14 73 55 148 100 215 3 -78 -83 -44 -24 -15 -7 25 65 155 133 125 154 58 144 154 279 452 503 540 618 638 695 727 796 746 742 674 702
112 167 160 163 64 1 61 79 13 43 54 119 147 253 252 -114 -83 -64 -51 -36 -54 -16 11 34 128 207 213 171 105 126 299 465 522 605 679 696 761 786 865 994 814 635 792 735
101 125 94 5 -16 46 -3 55 83 64 4 130 119 204 35 39 2 -5 -76 -65 -19 -4 54 68 105 183 220 252 348 416 495 619 628 712 736 746 799 855 943 904 767 631 692 539
114 115 143 169 99 47 73 115 77 4 48 86 105 133 140 124 54 16 -73 -77 -8 20 51 77 129 213 259 288 388 512 658 658 634 657 673 759 762 843 888 787 694 796 591 381
127 96 125 154 157 88 100 112 87 80 37 68 130 216 183 174 95 -64 -65 -29 6 35 45 86 151 198 215 280 405 498 599 596 609 683 709 709 777 823 854 706 531 488 386 263
116 75 70 33 -30 -39 60 35 34 55 44 133 174 271 177 222 100 -14 -33 5 46 56 73 117 161 182 200 238 333 475 634 566 601 672 666 763 776 744 675 546 386 316 220 147
92 72 17 3 20 17 1 10 14 36 65 95 117 234 297 220 86 8 63 60 63 114 122 146 163 161 153 208 258 294 320 429 481 546 615 602 607 578 414 296 226 166 104 52
112 87 -32 65 -9 5 4 58 53 79 68 106 199 303 272 228 117 -3 43 97 118 154 161 167 201 187 215 226 297 337 367 441 450 531 455 422 351 314 195 150 106 68 72 75
105 88 -22 6 -2 25 17 -14 13 49 75 122 265 309 258 216 141 187 102 104 186 202 197 173 228 239 257 242 230 302 282 373 386 339 273 200 153 85 45 51 62 74 64 68
77 47 -17 29 -2 10 -12 8 52 99 30 106 111 223 253 240 101 242 158 144 165 163 189 162 206 180 166 168 180 261 227 203 184 145 118 48 20 44 54 48 36 39 90 115
92 75 60 52 19 29 32 30 62 0 61 89 54 69 130 205 232 145 131 131 149 107 52 59 113 114 91 84 138 144 134 129 79 71 8 57 68 60 41 49 66 94 107 114
119 88 24 33 11 18 20 21 -10 99 113 86 42 31 28 34 109 74 100 76 94 100 110 118 79 76 110 114 115 61 95 56 41 66 83 75 31 16 72 80 70 85 95 127
78 80 10 4 -4 -11 -19 -5 70 63 66 62 50 17 0 -4 38 44 34 45 65 77 81 87 70 64 95 109 81 79 49 15 10 29 47 70 72 94 76 71 74 92 94 84
84 114 89 44 -12 12 2 -21 -1 29 47 41 36 24 -7 -10 5 20 23 19 27 58 69 62 69 52 79 57 -9 -28 -19 -10 46 77 92 77 90 86 78 65 63 62 55 75
160 125 83 80 36 17 11 17 23 40 30 31 32 37 20 20 22 25 23 23 16 2 1 15 22 21 5 5 28 19 18 46 98 100 90 93 90 87 94 90 75 85 71 69
199 173 181 36 13 -23 -47 -51 -33 -6 -5 5 26 32 26 27 17 18 10 7 5 2 0 14 21 46 27 30 29 34 32 76 101 105 81 72 93 97 106 126 146 135 140 147
Wind_Speed
53 60 69 69 62 64 72 79 88 88 83 86 94 115 109 105 108 113 109 107 107 99 94 91 78 72 65 55 52 50 52 50 44 38 42 44 39 35 36 34 31 28 27 26
61 63 58 62 65 73 73 79 84 78 74 87 96 110 110 103 97 97 101 104 104 105 97 91 87 75 68 63 54 51 52 51 48 44 43 44 41 39 34 33 33 30 27 25
61 56 60 67 74 74 73 73 81 91 90 83 88 92 69 74 72 69 72 82 89 97 101 96 89 79 65 66 63 55 51 51 51 47 43 39 33 35 38 32 29 32 30 30
58 58 67 72 72 65 80 68 84 90 89 90 62 87 78 62 63 51 64 64 69 76 83 90 88 86 71 63 68 61 55 51 50 48 48 45 45 43 42 35 27 23 31 29
66 67 73 71 66 69 77 70 82 92 86 72 57 62 62 58 57 65 61 62 63 62 61 67 83 91 85 66 63 67 62 57 52 50 49 48 45 44 37 32 29 29 24 24
61 56 54 58 59 60 63 72 84 58 51 55 50 53 64 56 60 59 62 63 65 67 70 70 71 78 84 73 65 61 61 61 55 53 50 48 46 41 37 34 33 30 26 21
74 62 58 52 72 54 67 69 68 55 55 53 50 61 58 55 52 58 65 72 74 72 74 74 71 70 74 80 69 64 58 58 56 53 53 51 47 43 42 37 33 29 27 26
81 84 69 56 56 51 59 49 56 61 61 78 64 46 53 45 51 63 71 79 82 84 78 77 74 71 74 77 78 69 65 59 54 52 53 51 48 47 43 40 33 31 27 23
73 70 56 49 45 39 44 49 5 47 59 58 49 53 57 55 68 82 88 91 94 88 86 84 80 77 75 81 81 77 68 63 57 49 46 47 46 46 43 36 31 27 22 16
58 75 51 47 41 34 13 7 23 37 59 60 55 64 65 72 82 91 94 95 92 91 88 86 83 81 77 80 81 83 73 67 61 52 47 42 42 42 39 36 32 22 15 10
55 51 54 48 39 9 12 8 4 5 8 55 65 69 29 70 92 97 97 95 95 95 91 86 85 82 83 85 80 81 72 69 60 53 45 41 37 37 35 32 27 21 14 10
45 48 53 36 19 18 14 11 6 5 12 13 12 18 31 87 87 89 92 94 98 94 89 83 80 78 75 71 69 54 55 58 55 49 43 38 33 31 31 28 21 21 9 6
45 46 55 49 17 6 21 9 7 10 11 15 12 22 55 62 70 81 92 99 95 87 81 74 66 58 50 42 37 37 40 43 44 42 38 33 29 27 26 22 22 17 10 10
34 36 33 23 33 37 32 22 21 10 4 10 14 41 57 62 74 77 84 79 79 75 67 58 49 41 34 29 27 28 31 31 33 32 31 28 23 22 20 18 17 14 13 14
40 35 30 18 42 38 34 24 23 23 16 6 24 31 43 53 56 56 68 68 68 65 50 37 29 24 24 21 18 22 22 24 25 26 22 23 22 23 19 19 18 15 13 15
39 33 44 36 40 39 32 23 8 12 5 8 17 26 39 46 35 45 69 63 52 42 27 19 14 7 13 17 15 18 16 22 22 20 21 25 24 26 27 22 24 17 18 17
34 34 53 37 44 42 25 11 6 4 7 10 20 33 41 47 39 46 42 19 13 18 12 8 7 8 11 11 25 14 15 20 23 22 24 27 32 29 29 30 28 23 25 27
27 29 42 42 41 30 22 8 1 6 2 12 24 28 37 36 24 35 45 17 16 7 3 13 7 7 7 10 14 18 24 26 29 27 35 32 34 34 29 27 32 29 25 24
16 24 38 37 40 40 25 11 1 15 9 7 28 27 28 31 30 45 33 29 10 24 19 3 6 9 11 17 20 24 28 36 38 39 36 36 35 37 38 38 35 26 27 29
23 20 38 39 36 32 24 9 21 30 7 25 34 27 31 25 41 30 29 23 20 17 11 14 14 21 21 18 32 35 36 40 40 39 39 39 39 38 35 32 30 37 40 39
26 19 38 45 41 38 27 15 35 7 6 33 28 24 21 15 26 20 31 39 37 23 26 26 29 31 26 30 39 43 41 44 41 34 33 30 28 34 35 45 44 41 38 36
24 23 34 37 40 37 17 31 13 6 3 15 20 21 19 8 9 15 20 29 37 42 40 37 30 26 23 26 32 44 37 25 25 25 29 35 46 49 42 43 40 38 35 32
20 22 33 46 42 31 19 21 9 20 7 8 9 18 17 8 3 10 19 26 32 37 39 35 33 32 26 25 21 25 22 30 54 57 52 44 40 31 35 38 36 32 33 33
11 19 27 46 41 34 27 23 22 18 17 11 10 10 8 12 17 17 30 43 47 46 37 47 23 21 44 63 69 59 57 48 42 44 35 34 37 40 34 32 32 34 34 33
9 16 19 50 51 48 45 37 23 17 24 22 15 19 19 25 37 46 48 51 54 57 58 59 57 54 49 35 30 25 27 33 33 32 34 38 35 35 34 33 32 32 29 29
16 15 23 40 35 36 34 32 30 28 27 22 22 27 28 35 43 47 51 51 51 50 49 47 44 40 40 38 32 27 33 34 36 34 35 37 35 31 31 32 32 32 31 32
Wind_Direction
10 1 352 346 346 335 324 314 307 305 305 297 292 281 282 282 276 272 271 269 266 267 267 267 271 263 254 245 242 235 236 236 234 234 240 249 247 248 252 254 253 247 249 255
3 359 358 350 343 333 326 318 312 312 312 302 295 285 285 282 279 276 273 270 267 266 266 265 265 266 256 246 236 233 230 233 232 237 240 250 248 254 253 255 256 253 252 259
357 357 353 348 339 334 329 321 318 310 310 308 299 292 294 294 291 288 284 279 274 267 263 262 262 264 262 246 240 234 226 230 231 236 241 248 246 249 254 254 253 261 260 266
359 358 351 346 341 340 328 328 319 313 310 300 313 285 296 291 296 301 300 295 288 278 270 263 261 260 260 254 245 235 229 227 230 229 234 232 235 243 254 250 254 264 266 267
357 354 350 348 348 344 330 329 320 311 305 304 307 292 294 300 298 301 303 302 297 290 288 280 269 258 256 253 249 243 235 231 230 228 231 233 237 246 247 247 251 262 269 278
357 358 0 355 353 347 343 336 325 331 320 305 306 301 289 296 302 305 304 304 306 296 288 286 284 267 255 252 248 244 237 232 232 232 231 229 234 237 238 242 248 258 271 280
360 1 3 4 353 357 350 345 333 326 322 311 310 303 293 303 307 307 305 305 305 302 292 285 284 275 261 253 246 241 239 227 231 232 234 233 233 230 229 232 241 246 262 274
358 358 2 5 360 356 351 0 342 325 323 305 305 300 307 311 312 310 305 304 303 301 295 285 280 278 265 258 252 241 236 236 233 233 235 237 235 238 239 239 241 251 259 265
359 359 2 2 8 13 14 3 295 344 326 313 312 310 312 313 309 310 307 305 302 298 294 285 279 275 269 260 255 245 240 235 231 233 234 235 236 236 236 235 240 250 255 259
5 355 10 14 21 41 65 201 294 301 329 317 317 315 310 315 314 311 308 305 301 299 294 286 279 273 270 263 258 251 239 235 233 233 236 237 235 236 232 231 231 236 235 247
7 9 6 16 30 242 226 228 110 167 128 326 316 320 24 317 311 311 310 307 303 299 294 287 279 274 269 262 259 251 239 234 230 233 236 236 239 234 231 231 229 224 224 242
14 10 4 14 244 214 105 75 228 112 241 265 256 282 27 311 308 307 304 302 303 300 295 289 280 273 268 261 254 248 231 225 228 231 232 235 237 229 223 219 208 202 212 184
12 11 5 17 234 129 248 230 74 280 255 267 270 282 300 303 303 304 305 306 304 299 294 289 283 273 267 262 245 235 224 221 225 226 225 227 228 220 218 197 186 165 154 138
22 11 13 16 255 260 257 258 282 300 314 303 312 302 310 313 311 309 309 305 306 309 302 293 279 268 261 256 239 229 217 213 213 214 215 211 207 198 186 184 165 144 133 111
18 7 11 248 248 249 242 252 277 292 281 30 313 320 326 329 318 310 312 312 318 322 307 301 277 261 249 242 233 214 202 195 190 188 193 180 170 163 152 165 139 122 121 102
17 14 4 266 275 268 247 243 249 297 20 355 335 332 343 340 345 324 326 326 319 315 299 271 267 288 241 225 210 188 184 160 159 158 154 159 145 146 139 140 124 110 107 106
18 19 328 260 282 274 227 166 257 302 45 331 347 330 353 342 334 335 334 341 75 306 294 286 302 238 212 194 191 158 174 142 144 138 136 138 132 126 127 119 108 110 103 98
26 27 285 263 287 233 213 139 131 87 312 66 331 344 14 4 360 344 343 8 92 146 278 178 191 183 167 146 152 104 109 116 124 123 119 127 120 120 117 116 107 103 93 82
88 51 265 260 267 251 219 135 115 93 101 322 326 335 360 13 59 65 6 4 46 122 148 82 50 156 97 136 109 99 113 100 113 112 120 116 116 112 109 104 98 91 83 76
92 114 257 268 255 230 216 130 72 80 139 316 320 323 339 14 12 54 53 57 61 46 77 50 117 71 76 112 85 101 109 103 103 109 112 106 103 100 100 96 91 86 85 81
62 92 222 246 250 235 209 105 60 187 222 308 311 311 330 16 74 79 85 92 98 76 64 71 86 82 97 91 90 89 93 93 96 105 102 101 100 93 89 89 87 85 81 77
67 86 227 260 244 233 53 61 178 161 114 284 296 300 312 329 76 91 99 103 110 114 117 116 104 89 96 98 99 85 91 113 110 108 95 87 87 91 86 86 82 81 75 63
69 117 230 238 238 193 140 218 136 100 133 251 259 288 295 291 108 111 119 120 121 127 131 132 129 126 126 133 120 115 134 86 88 90 88 83 80 73 76 82 80 70 68 67
90 154 182 262 243 206 187 145 114 117 102 169 194 238 213 154 137 131 120 115 116 123 137 134 145 102 131 123 95 85 89 84 83 84 77 76 78 81 70 66 69 75 78 73
87 88 154 229 232 228 221 210 189 141 129 130 159 130 131 128 106 94 98 98 98 93 92 90 84 78 70 61 61 63 69 77 76 74 77 80 75 73 69 65 65 66 56 73
104 127 154 214 194 184 180 134 109 107 126 146 124 112 117 107 93 85 76 83 82 79 78 73 70 67 67 68 63 59 71 77 82 79 81 85 80 68 64 63 58 47 49 47